Location: Arcones
(41.1182°N, 3.7238°W)
Time: 23:18:44
(UTC+00:00)

Cosmos 2263 Rocket - Pass Details

Date: 23 March 2026
Orbit: 823 x 847 km, 71.0° (Epoch: 13 April)

Event Time Altitude Azimuth Distance (km) Brightness Sun altitude
Rises 21:30:55 0° 336° (NNW) 3,390 6.1 -32.6°
Reaches altitude 10° 21:33:22 10° 338° (NNW) 2,448 5.2 -33.0°
Enters shadow 21:36:57 41° 343° (NNW) 1,192 3.2 -33.5°
